Location: Wald
(31.7579°N, 86.6655°W)
Time: 20:56:18
(UTC+00:00)

Cosmos 2058 - Pass Details

Date: 14 July 2020
Orbit: 562 x 584 km, 82.5° (Epoch: 13 August)

Event Time Altitude Azimuth Distance (km) Brightness Sun altitude
Exits shadow 02:33:47 32° 86° (E) 993 3.7 -18.5°
Drops below altitude 10° 02:37:17 10° 28° (NNE) 1,873 5.7 -19.1°
Sets 02:39:37 0° 18° (NNE) 2,770 6.7 -19.4°
